Mosinee, WI

5:07 AM CDT on April 26, 2017 (GMT -0500)
Central Wisconsin

Weather History for KCWA - January, 2013

Change the Weather History Date:

Saturday, January 5, 2013

  Actual Average Record
Temperature  
Mean Temperature 18 °F -  
Max Temperature 30 °F 22 °F 39 °F (2007)
Min Temperature 6 °F 7 °F -20 °F (1999)
Degree Days  
Heating Degree Days 47    
Moisture  
Dew Point 15 °F    
Average Humidity 90    
Maximum Humidity 100    
Minimum Humidity 69    
Precipitation  
Precipitation 0.00 in - - ()
Sea Level Pressure  
Sea Level Pressure 29.97 in    
Wind  
Wind Speed 4 mph (SSW)    
Max Wind Speed 14 mph    
Max Gust Speed 18 mph    
Visibility 9 miles    
Events      
Averages and records for this station are not official NWS values.
T = Trace of Precipitation, MM = Missing Value Source: NWS Daily Summary

Daily Weather History Graph

Daily Weather History Graph

Search for Another Location

Airport or City:

Trip Planner

Search our weather history database for the weather conditions in past years. The results will help you decide how hot, cold, wet, or windy it might be!

Date:

Astronomy

Jan. 05, 2013 Rise Set
Actual Time 7:35 AM CST 4:32 PM CST
Civil Twilight 7:02 AM CST 5:06 PM CST
Nautical Twilight 6:25 AM CST 5:42 PM CST
Astronomical Twilight 5:50 AM CST 6:18 PM CST
Moon 12:33 AM CST (1/5) 11:30 AM CST (1/5)
Length of Visible Light 10h 03m
Length of Day
8h 56m
Last Quarter, 44% of the Moon is Illuminated
Jan 5
Last Quarter
Jan 11
New
Jan 18
First Quarter
Jan 26
Full
Feb 3
Last Quarter

Hourly Weather History & Observations

Time (CST) Temp. Windchill Dew Point Humidity Pressure Visibility Wind Dir Wind Speed Gust Speed Precip Events Conditions
12:15 AM 14.0 °F - 14.0 °F 100% 30.13 in 10.0 mi Calm Calm - N/A   Clear
12:55 AM 14.0 °F - 14.0 °F 100% 30.12 in 10.0 mi Calm Calm - N/A   Clear
1:15 AM 12.2 °F - 10.4 °F 92% 30.12 in 10.0 mi Calm Calm - N/A   Clear
1:35 AM 10.4 °F - 10.4 °F 100% 30.12 in 4.0 mi Calm Calm - N/A   Clear
1:55 AM 10.4 °F - 8.6 °F 92% 30.12 in 7.0 mi Calm Calm - N/A   Clear
2:15 AM 8.6 °F - 8.6 °F 100% 30.12 in 10.0 mi Calm Calm - N/A   Clear
2:35 AM 8.6 °F 2.0 °F 8.6 °F 100% 30.11 in 7.0 mi East 3.5 mph - N/A   Clear
2:55 AM 10.4 °F -0.4 °F 8.6 °F 92% 30.09 in 7.0 mi ENE 6.9 mph - N/A   Clear
3:15 AM 10.4 °F - 10.4 °F 100% 30.10 in 7.0 mi Calm Calm - N/A   Clear
3:35 AM 10.4 °F - 8.6 °F 92% 30.10 in 10.0 mi Calm Calm - N/A   Clear
4:15 AM 10.4 °F - 8.6 °F 92% 30.10 in 7.0 mi Calm Calm - N/A   Clear
4:35 AM 10.4 °F - 10.4 °F 100% 30.09 in 5.0 mi Calm Calm - N/A   Clear
5:52 AM 6.8 °F -0.1 °F 6.8 °F 100% 30.08 in 7.0 mi East 3.5 mph - N/A   Clear
6:45 AM 6.8 °F -0.1 °F 5.0 °F 92% 30.06 in 10.0 mi ESE 3.5 mph - N/A   Clear
7:45 AM 6.8 °F -0.1 °F 6.8 °F 100% 30.04 in 10.0 mi ESE 3.5 mph - N/A   Clear
8:45 AM 8.6 °F 2.0 °F 8.6 °F 100% 30.04 in 10.0 mi South 3.5 mph - N/A   Clear
9:52 AM 14.0 °F 6.5 °F 12.2 °F 93% 30.01 in 10.0 mi ESE 4.6 mph - N/A   Clear
10:45 AM 17.6 °F 8.2 °F 15.8 °F 93% 29.99 in 10.0 mi SSE 6.9 mph - N/A   Clear
11:50 AM 21.2 °F 11.7 °F 21.2 °F 100% 29.94 in 10.0 mi South 8.1 mph - N/A   Clear
12:45 PM 26.6 °F 16.8 °F 26.6 °F 100% 29.90 in 10.0 mi SSW 10.4 mph - N/A   Clear
1:50 PM 26.6 °F 21.2 °F 19.4 °F 74% 29.86 in 10.0 mi South 4.6 mph - N/A   Clear
2:45 PM 26.6 °F - 19.4 °F 74% 29.85 in 10.0 mi Calm Calm - N/A   Clear
3:45 PM 30.2 °F 19.8 °F 21.2 °F 69% 29.82 in 10.0 mi South 13.8 mph - N/A   Clear
4:45 PM 28.4 °F 20.4 °F 21.2 °F 74% 29.83 in 10.0 mi SSW 8.1 mph - N/A   Clear
5:45 PM 24.8 °F 15.3 °F 21.2 °F 86% 29.82 in 10.0 mi South 9.2 mph - N/A   Clear
6:50 PM 26.6 °F 16.8 °F 23.0 °F 86% 29.83 in 10.0 mi SW 10.4 mph - N/A   Clear
8:45 PM 26.6 °F 20.0 °F 24.8 °F 93% 29.84 in 10.0 mi WSW 5.8 mph - N/A   Overcast
9:15 PM 28.4 °F 20.4 °F 24.8 °F 86% 29.84 in 10.0 mi West 8.1 mph - N/A   Overcast
9:35 PM 26.6 °F 15.2 °F 23.0 °F 86% 29.84 in 10.0 mi WNW 13.8 mph - N/A   Overcast
9:45 PM 24.8 °F 14.6 °F 19.4 °F 80% 29.84 in 10.0 mi West 10.4 mph - N/A   Overcast
9:55 PM 26.6 °F 17.5 °F 21.2 °F 80% 29.84 in 10.0 mi WNW 9.2 mph - N/A   Overcast
10:15 PM 24.8 °F 15.3 °F 19.4 °F 80% 29.83 in 10.0 mi West 9.2 mph - N/A   Overcast
10:35 PM 23.0 °F 11.1 °F 19.4 °F 86% 29.84 in 10.0 mi West 12.7 mph - N/A   Overcast
11:15 PM 23.0 °F 11.1 °F 19.4 °F 86% 29.85 in 10.0 mi West 12.7 mph 17.3 mph N/A   Overcast
11:35 PM 23.0 °F 11.1 °F 17.6 °F 80% 29.84 in 10.0 mi WNW 12.7 mph 18.4 mph N/A   Mostly Cloudy
11:55 PM 21.2 °F 10.9 °F 17.6 °F 86% 29.84 in 10.0 mi West 9.2 mph - N/A   Scattered Clouds